This demonstration page uses our WeatherBlox Daily Observations layout. Learn more.

Left ArrowRight Arrow

44.8408, -93.29828

Hourly Observations for September 19, 2019

Temp ( °F °C ) Dew Point ( °F °C ) Humidity (%) Winds ( mph kmh ) Pressure ( in mb ) Visibility ( mi km ) Precip ( " mm )
12:53 am 00:53 Mostly Clear 70 21.1 63 17.2 79 79 S 6 9 29.94 1014 9 14 0.00 0.00
1:53 am 01:53 Clear 67 19.4 63 17.2 87 87 S 3 6 29.93 1014 7 11 0.00 0.00
2:53 am 02:53 Clear 67 19.4 63 17.2 87 87 WSW 3 6 29.93 1014 7 11 0.00 0.00
3:53 am 03:53 Mostly Cloudy 67 19.4 62 16.7 84 84 Calm 29.93 1013 8 13 0.00 0.00
4:53 am 04:53 Mostly Cloudy 65 18.3 62 16.7 90 90 Calm 29.92 1013 10 16 0.00 0.00
5:53 am 05:53 Cloudy 66 18.9 63 17.2 90 90 Calm 29.92 1013 8 13 0.00 0.00
6:32 am 06:32 Mostly Cloudy 65 18.3 62 16.7 90 90 SSW 3 6 29.97 1015 7 11 0.00 0.00
6:53 am 06:53 Mostly Cloudy 66 18.9 63 17.2 90 90 SW 5 7 30.00 1016 10 16 0.00 0.00
7:53 am 07:53 Mostly Cloudy 66 18.9 62 16.7 87 87 SE 3 6 30.01 1016 10 16 0.00 0.00
8:53 am 08:53 Mostly Cloudy 68 20 62 16.7 81 81 SSW 3 6 30.00 1016 10 16 0.00 0.00
9:53 am 09:53 Partly Cloudy 72 22.2 62 16.7 71 71 VRB 3 6 29.99 1016 10 16 0.00 0.00
10:53 am 10:53 Partly Cloudy 77 25 63 17.2 62 62 W 5 7 30.00 1016 10 16 0.00 0.00
11:53 am 11:53 Partly Cloudy 78 25.6 63 17.2 60 60 Calm 30.00 1016 10 16 0.00 0.00
12:53 pm 12:53 Partly Cloudy 80 26.7 62 16.7 54 54 Calm 29.99 1016 10 16 0.00 0.00
1:53 pm 13:53 Partly Cloudy 81 27.2 61 16.1 51 51 SSE 6 9 29.97 1015 10 16 0.00 0.00
2:53 pm 14:53 Mostly Sunny 82 27.8 61 16.1 49 49 VRB 3 6 29.96 1015 10 16 0.00 0.00
3:53 pm 15:53 Mostly Sunny 82 27.8 60 15.6 47 47 VRB 3 6 29.96 1014 10 16 0.00 0.00
4:53 pm 16:53 Mostly Sunny 83 28.3 60 15.6 46 46 Calm 29.95 1014 10 16 0.00 0.00
5:53 pm 17:53 Mostly Sunny 82 27.8 62 16.7 51 51 SSE 5 7 29.96 1014 10 16 0.00 0.00
6:53 pm 18:53 Mostly Sunny 79 26.1 65 18.3 62 62 SSE 7 11 29.96 1015 10 16 0.00 0.00
7:53 pm 19:53 Mostly Clear 77 25 65 18.3 66 66 SE 7 11 29.98 1015 10 16 0.00 0.00
8:53 pm 20:53 Mostly Clear 77 25 65 18.3 66 66 SE 6 9 30.00 1016 10 16 0.00 0.00
9:53 pm 21:53 Mostly Clear 73 22.8 67 19.4 81 81 SE 9 15 30.00 1016 10 16 0.00 0.00
10:53 pm 22:53 Mostly Clear 73 22.8 67 19.4 81 81 SE 7 11 30.00 1016 10 16 0.00 0.00
11:53 pm 23:53 Mostly Clear 72 22.2 67 19.4 84 84 ESE 8 13 30.00 1016 10 16 0.00 0.00

Powered by AerisWeather